User: anonymous   Login
Location: Coyote Lake
(37.1190°N, 121.5480°W)
Time: 22:29:17
(UTC-07:00)
Language:

Tiangong 2 - Orbit

View from above orbital plane
View from above orbital plane
View from above satellite
View from above satellite

Ground track
Ground track

The orbit data is extracted from the following two-line orbital elements,

1 41765U 16057A   18142.75585648  .00003078  00000-0  39627-4 0  9995
2 41765  42.7849 134.5253 0002433  70.4093 278.9204 15.61316098 96004
Epoch (UTC): 22 May 2018 18:08:26
Eccentricity: 0.0002433
inclination: 42.7849°
perigee height: 382 km
apogee height: 385 km
right ascension of ascending node: 134.5253°
argument of perigee: 70.4093°
revolutions per day: 15.61316098
mean anomaly at epoch: 278.9204°
orbit number at epoch: 9600

The dashed part of the orbit path shows where the satellite is in the earth's shadow,  

DLR